TimeWEST,TemperatureF,Dew PointF,Humidity,Sea Level PressureIn,VisibilityMPH,Wind Direction,Wind SpeedMPH,Gust SpeedMPH,PrecipitationIn,Events,Conditions,WindDirDegrees,DateUTC
12:00 AM,71.6,55.4,57,29.95,-9999.0,West,11.5,-,N/A,,Clear,260,2012-09-04 23:00:00
12:30 AM,71.6,57.2,60,29.95,-9999.0,West,9.2,-,N/A,,Clear,260,2012-09-04 23:30:00
1:00 AM,69,56,54,29.89,6,West,9.2,,,,,260,2012-09-05 00:00:00
1:00 AM,69.8,57.2,64,29.95,-9999.0,West,9.2,-,N/A,,Clear,260,2012-09-05 00:00:00
1:30 AM,69.8,57.2,64,29.92,-9999.0,West,10.4,-,N/A,,Clear,260,2012-09-05 00:30:00
2:00 AM,68.0,57.2,68,29.92,-9999.0,WSW,10.4,-,N/A,,Clear,250,2012-09-05 01:00:00
2:30 AM,68.0,55.4,64,29.92,-9999.0,West,9.2,-,N/A,,Clear,260,2012-09-05 01:30:00
3:00 AM,66.2,55.4,68,29.92,-9999.0,West,9.2,-,N/A,,Clear,260,2012-09-05 02:00:00
3:30 AM,64.4,53.6,68,29.92,-9999.0,West,8.1,-,N/A,,Clear,260,2012-09-05 02:30:00
4:00 AM,65,55,62,29.88,6,West,5.8,,,,,270,2012-09-05 03:00:00
4:00 AM,64.4,55.4,73,29.92,-9999.0,West,5.8,-,N/A,,Clear,280,2012-09-05 03:00:00
4:30 AM,64.4,53.6,68,29.92,-9999.0,West,5.8,-,N/A,,Clear,270,2012-09-05 03:30:00
5:00 AM,64.4,53.6,68,29.92,-9999.0,West,5.8,-,N/A,,Clear,280,2012-09-05 04:00:00
5:30 AM,64.4,53.6,68,29.92,-9999.0,West,5.8,-,N/A,,Clear,270,2012-09-05 04:30:00
6:00 AM,64.4,59.0,83,29.92,-9999.0,West,5.8,-,N/A,,Clear,270,2012-09-05 05:00:00
6:30 AM,64.4,60.8,88,29.92,-9999.0,West,3.5,-,N/A,,Clear,280,2012-09-05 05:30:00
7:00 AM,64,61,86,29.90,6,WNW,4.6,,,,Scattered Clouds,290,2012-09-05 06:00:00
7:00 AM,62.6,59.0,88,29.92,6.2,WNW,4.6,-,N/A,,Partly Cloudy,290,2012-09-05 06:00:00
7:30 AM,64.4,60.8,88,29.95,5.6,West,2.3,-,N/A,,Partly Cloudy,280,2012-09-05 06:30:00
8:00 AM,68.0,62.6,83,29.95,4.3,North,1.2,-,N/A,,Partly Cloudy,10,2012-09-05 07:00:00
8:30 AM,71.6,59.0,64,29.95,-9999.0,WNW,3.5,-,N/A,,Clear,300,2012-09-05 07:30:00
9:00 AM,73.4,59.0,61,29.95,-9999.0,West,4.6,-,N/A,,Clear,260,2012-09-05 08:00:00
9:30 AM,73.4,60.8,65,29.95,-9999.0,West,5.8,-,N/A,,Clear,280,2012-09-05 08:30:00
10:00 AM,74,61,55,29.90,6,WNW,5.8,,,,,290,2012-09-05 09:00:00
10:00 AM,75.2,60.8,61,29.95,-9999.0,WNW,4.6,-,N/A,,Clear,300,2012-09-05 09:00:00
10:30 AM,77.0,59.0,54,29.98,-9999.0,WNW,6.9,-,N/A,,Clear,290,2012-09-05 09:30:00
11:00 AM,77.0,59.0,54,29.98,-9999.0,WNW,8.1,-,N/A,,Clear,300,2012-09-05 10:00:00
11:30 AM,80.6,59.0,48,29.98,-9999.0,West,9.2,-,N/A,,Clear,280,2012-09-05 10:30:00
12:00 PM,82.4,57.2,42,29.98,-9999.0,West,8.1,-,N/A,,Clear,280,2012-09-05 11:00:00
12:30 PM,84.2,55.4,37,29.95,-9999.0,West,8.1,-,N/A,,Clear,270,2012-09-05 11:30:00
1:00 PM,85,55,26,29.86,6,WNW,8.1,,,,,300,2012-09-05 12:00:00
1:00 PM,84.2,57.2,40,29.95,-9999.0,WNW,10.4,-,N/A,,Clear,300,2012-09-05 12:00:00
1:30 PM,86.0,53.6,33,29.95,-9999.0,NW,8.1,-,N/A,,Clear,310,2012-09-05 12:30:00
2:00 PM,87.8,53.6,31,29.95,-9999.0,Variable,9.2,-,N/A,,Clear,0,2012-09-05 13:00:00
2:30 PM,87.8,53.6,31,29.92,-9999.0,Variable,6.9,-,N/A,,Clear,0,2012-09-05 13:30:00
3:00 PM,89.6,53.6,29,29.92,-9999.0,WNW,4.6,-,N/A,,Clear,290,2012-09-05 14:00:00
3:30 PM,89.6,53.6,29,29.92,-9999.0,West,8.1,-,N/A,,Clear,270,2012-09-05 14:30:00
4:00 PM,90,52,18,29.80,6,WNW,6.9,,,,Scattered Clouds,300,2012-09-05 15:00:00
4:00 PM,89.6,51.8,27,29.92,6.2,WNW,5.8,-,N/A,,Partly Cloudy,290,2012-09-05 15:00:00
4:30 PM,89.6,50.0,26,29.89,6.2,West,3.5,-,N/A,,Partly Cloudy,270,2012-09-05 15:30:00
5:00 PM,89.6,50.0,26,29.89,6.2,West,10.4,-,N/A,,Partly Cloudy,260,2012-09-05 16:00:00
5:30 PM,89.6,48.2,24,29.92,6.2,West,8.1,-,N/A,,Partly Cloudy,270,2012-09-05 16:30:00
6:00 PM,89.6,48.2,24,29.92,6.2,West,9.2,-,N/A,,Partly Cloudy,280,2012-09-05 17:00:00
6:30 PM,89.6,51.8,27,29.92,6.2,WNW,9.2,-,N/A,,Partly Cloudy,290,2012-09-05 17:30:00
7:00 PM,87,50,18,29.81,6,WNW,12.7,,,,Scattered Clouds,290,2012-09-05 18:00:00
7:00 PM,87.8,50.0,27,29.92,6.2,WNW,12.7,-,N/A,,Partly Cloudy,290,2012-09-05 18:00:00
7:30 PM,86.0,51.8,31,29.92,6.2,West,15.0,-,N/A,,Partly Cloudy,280,2012-09-05 18:30:00
8:00 PM,82.4,55.4,39,29.92,6.2,WNW,15.0,-,N/A,,Partly Cloudy,300,2012-09-05 19:00:00
8:30 PM,80.6,57.2,45,29.95,6.2,WNW,16.1,-,N/A,,Partly Cloudy,290,2012-09-05 19:30:00
9:00 PM,78.8,57.2,47,29.95,5.6,WNW,13.8,-,N/A,,Partly Cloudy,290,2012-09-05 20:00:00
9:30 PM,77.0,59.0,54,29.98,6.2,WNW,11.5,-,N/A,,Partly Cloudy,300,2012-09-05 20:30:00
10:00 PM,75,59,49,29.92,6,West,11.5,,,,Scattered Clouds,270,2012-09-05 21:00:00
10:00 PM,75.2,59.0,57,29.98,6.2,West,11.5,-,N/A,,Partly Cloudy,270,2012-09-05 21:00:00
10:30 PM,73.4,59.0,61,29.98,6.2,West,9.2,-,N/A,,Partly Cloudy,260,2012-09-05 21:30:00
11:00 PM,71.6,60.8,69,29.98,-9999.0,West,9.2,-,N/A,,Clear,260,2012-09-05 22:00:00
11:30 PM,71.6,60.8,69,30.01,-9999.0,West,10.4,-,N/A,,Clear,260,2012-09-05 22:30:00